Location: *
(41.7492°S, 135.4150°W)
Time: 19:10:29
(UTC+00:00)

Cosmos 2266 Rocket - Pass Details

Date: 20 September 2021
Orbit: 933 x 1009 km, 82.9° (Epoch: 16 October)

Event Time Altitude Azimuth Distance (km) Brightness Sun altitude
Rises 14:06:46 0° 331° (NNW) 3,584 6.6 -9.5°
Reaches altitude 10° 14:09:24 10° 323° (NW) 2,651 5.9 -9.1°
Maximum altitude 14:14:59 38° 255° (WSW) 1,415 4.4 -8.0°
Drops below altitude 10° 14:20:42 10° 188° (S) 2,710 6.3 -7.0°
Sets 14:23:27 0° 179° (S) 3,674 7.1 -6.4°
